Location: Unspecified
(51.0950°N, 12.9690°E)
Time: 10:50:49
(UTC+00:00)

ATLAS 3B R/B - Pass Details

Date: 28 May 2022
Orbit: 976 x 1218 km, 63.8° (Epoch: 20 June)

Event Time Altitude Azimuth Distance (km) Brightness Sun altitude
Rises 21:13:43 0° 315° (NW) 3,956 7.2 -13.3°
Reaches altitude 10° 21:16:26 10° 310° (NW) 3,028 6.2 -13.5°
Maximum altitude 21:23:21 49° 239° (WSW) 1,477 3.4 -13.9°
Enters shadow 21:28:50 18° 172° (S) 2,587 4.1 -14.3°
